Content
SEND FEEDBACK

Daily
Averages
Monthly
Summary
United States of America

ASHEVILLE, NORTH CAROLINA


Home > North America > United States > North Carolina
Elevation: 2240 feet     Latitude: 35 36N     Longitude: 082 32W

WEATHER
 
SELECT A DAY
Number of Records: 230,393;   Date Range: 1/1/95 - 11/25/14
 
SHARE

PRINT THIS DATA

[ ← Previous Day ]
WEATHER ALMANAC - AUGUST 1, 2013
[ Next Day → ]
[ °C ]   °F
Weather ElementAverageHighLow
Temperature71.6 °F82 °F (4:54 pm)66.2 °F (5:47 am)
Dewpoint66.4 °F70 °F (2:54 pm)63 °F (6:54 pm)
Humidity84.4 %100 % (5:47 am)56 % (4:54 pm)
Barometer29.99 in30.07 in (12:25 am)29.91 in (3:54 pm)
Wind Speed5.1 mph16.1 mph (1:13 pm)
Wind Gust26.5 mph (1:13 pm)
Weather ElementAverage
Visibility7.6 mi
Wind DirectionSSW (205.4 °)

Weather ElementTotal
Precipitation2.30 in
Cooling Degree Days9.1 (Base 65)
Growing Degree Days24.1 (Base 50)
Averaged from 46 records on August 1, 2013
WEATHER CONDITIONS BREAKOUT
WIND DIRECTION BREAKOUT
WEATHER BY HOUR - AUGUST 1, 2013
[ °C ]   °F
Local TimeTemperatureDewpointHumidityBarometerVisibilityWind DirectionWind SpeedGust SpeedPrecipitationEventsConditions
12:25 AM69.8 °F66.2 °F88 %30.07 in8.0 miSE (140°)3.5 mphOvercast
12:54 AM69.1 °F66.9 °F93 %29.99 in8.0 miCalmScattered Clouds
12:58 AM69.8 °F66.2 °F88 %30.06 in8.0 miESE (120°)3.5 mphMostly Cloudy
1:54 AM70.0 °F66.9 °F90 %29.97 in10.0 miCalmOvercast
2:32 AM69.8 °F66.2 °F88 %30.04 in10.0 miSSW (200°)3.5 mphOvercast
2:51 AM69.8 °F66.2 °F88 %30.04 in10.0 miCalmOvercast
2:54 AM69.1 °F66.9 °F93 %29.97 in10.0 miCalmOvercast
3:01 AM69.8 °F66.2 °F88 %30.03 in10.0 miCalmOvercast
3:54 AM68.0 °F66.0 °F93 %29.95 in9.0 miCalmPartly Cloudy
4:54 AM66.9 °F66.0 °F97 %29.94 in6.0 miCalmOvercast
5:07 AM68.0 °F66.2 °F94 %30.01 in7.0 miCalmOvercast
5:34 AM68.0 °F66.2 °F94 %30.01 in7.0 miNNW (330°)3.5 mphOvercast
5:47 AM66.2 °F66.2 °F100 %30.01 in6.0 miNW (320°)5.8 mphMostly Cloudy
5:54 AM66.9 °F66.0 °F97 %29.93 in7.0 miNNW (330°)8.1 mphMostly Cloudy
5:59 AM66.2 °F66.2 °F100 %30.01 in6.0 miNNW (340°)6.9 mphMostly Cloudy
6:25 AM66.2 °F66.2 °F100 %30.02 in1.0 miNW (320°)8.1 mphOvercast
6:54 AM66.9 °F66.0 °F97 %29.96 in5.0 miNNW (340°)4.6 mphMostly Cloudy
7:02 AM68.0 °F66.2 °F94 %30.03 in3.0 miNNW (340°)5.8 mphScattered Clouds
7:50 AM69.8 °F66.2 °F88 %30.04 in4.0 miNNW (330°)4.6 mphMostly Cloudy
7:54 AM69.1 °F66.9 °F93 %29.96 in4.0 miNorth (350°)3.5 mphMostly Cloudy
8:21 AM69.8 °F66.2 °F88 %30.03 in10.0 miNorth (360°)5.8 mphMostly Cloudy
8:54 AM71.1 °F66.0 °F84 %29.96 in10.0 miNorth (350°)5.8 mphMostly Cloudy
9:54 AM73.9 °F66.0 °F76 %29.95 in10.0 miNorth (10°)6.9 mphClear
10:54 AM77.0 °F66.9 °F71 %29.96 in10.0 miCalmMostly Cloudy
11:54 AM78.1 °F66.9 °F68 %29.96 in10.0 miNW (320°)5.8 mphPartly Cloudy
12:37 PM77.0 °F66.2 °F69 %30.03 in10.0 miCalmOvercast
12:54 PM75.0 °F68.0 °F79 %29.96 in2.5 miNorth (360°)11.5 mph19.6 mph0.03 inRainRain
1:02 PM73.4 °F69.8 °F88 %30.04 in1.5 miNNW (340°)11.5 mph0.12 inRainHeavy Rain
1:08 PM71.6 °F68.0 °F88 %30.04 in3.0 miNNW (340°)6.9 mph18.4 mph0.14 inRainRain
1:13 PM69.8 °F68.0 °F94 %30.05 in1.8 miNW (320°)16.1 mph26.5 mph0.16 inRainRain
1:17 PM69.8 °F66.2 °F88 %30.06 in0.8 miNNE (20°)11.5 mph26.5 mph0.23 inRainHeavy Rain
1:30 PM69.8 °F66.2 °F88 %30.04 in1.8 miCalm0.54 inRainLight Rain
1:37 PM69.8 °F66.2 °F88 %30.03 in10.0 miNNW (340°)4.6 mph0.54 inRainLight Rain
1:54 PM73.9 °F69.1 °F85 %29.94 in10.0 miNorth (350°)10.4 mph0.54 inMostly Cloudy
2:54 PM75.0 °F70.0 °F84 %29.94 in10.0 miSE (130°)4.6 mphOvercast
3:04 PM75.2 °F69.8 °F83 %30.02 in10.0 miCalmOvercast
3:33 PM80.6 °F66.2 °F61 %30.00 in10.0 miNorth (350°)8.1 mphPartly Cloudy
3:54 PM81.0 °F68.0 °F65 %29.91 in10.0 miNorth (10°)11.5 mph18.4 mphClear
4:54 PM82.0 °F64.9 °F56 %29.91 in10.0 miNorth (350°)12.7 mphClear
5:54 PM81.0 °F64.9 °F58 %29.91 in10.0 miNorth (350°)11.5 mphClear
6:54 PM79.0 °F63.0 °F58 %29.93 in10.0 miNorth (360°)10.4 mph18.4 mphClear
7:54 PM77.0 °F63.0 °F62 %29.94 in10.0 miNorth (350°)5.8 mphClear
8:54 PM73.0 °F64.0 °F73 %29.98 in10.0 miCalmClear
9:54 PM70.0 °F64.0 °F81 %29.98 in10.0 miNW (320°)3.5 mphClear
10:54 PM66.9 °F64.9 °F93 %29.98 in10.0 miNNW (330°)3.5 mphClear
11:54 PM66.9 °F64.0 °F90 %29.98 in10.0 miNNW (330°)4.6 mphClear
Hourly data recorded from KAVL, located miles away from Asheville, North Carolina







STORIES FROM OUR PARTNERS